Flag for Germany Weather past 2 weeks in Schloss Holte-Stukenbrock, North Rhine-Westphalia, Germany

Now
29 °F

Snow flurries. Low clouds.


Feels Like: 29 °F
Forecast: 28 / 37 °F
Wind: 1 mph from West

Location: Bad Lippspringe

Current Time: Dec 29, 2014 at 7:49:00 AM

Latest Report: Dec 29, 2014 at 7:00 AM


Visibility: 2 mi

Pressure: 30.34 "Hg

Humidity: 98%

Dew point: 29 °F

Location of Schloss Holte-StukenbrockLocation

Historic Weather in Schloss Holte-Stukenbrock — Graph

°F

Schloss Holte-Stukenbrock temperature yesterday

Maximum temperature yesterday: 29 °F (at 2:00 PM)
Minimum temperature yesterday: 21 °F (at 9:00 AM)
Average temperature yesterday: 26 °F

Past Weeks' High & Low Weather Summary

 TemperatureHumidityPressure
High53 °F (Dec 18, 8:00 PM)100% (Dec 26, 10:00 AM)30.49 "Hg (Dec 26, 10:00 AM)
Low21 °F (Dec 28, 9:00 AM)57% (Dec 27, 6:00 PM)29.59 "Hg (Dec 27, 2:00 PM)
Average41 °F87%30.02 "Hg
* Reported Dec 16 11:00 AM — Dec 29 6:00 AM, Schloss Holte-Stukenbrock, Weather by CustomWeather, © 2014

Note: Actual official high and low records may vary slightly from our data, if they occured in-between our weather recording intervals... More about our weather records

Advertising

Schloss Holte-Stukenbrock weather history for previous 24 hours

 ConditionsComfort  
Time TempWeatherWind HumidityBarometerVisibility
6:00 AM
Dec 29
29 °FLight snow. Low clouds.2 mph97%30.35 "Hg2 mi
5:00 AM29 °FLow clouds.3 mph97%30.36 "Hg3 mi
4:00 AM28 °FSnow. Low clouds.5 mph96%30.39 "Hg1 mi
3:00 AM30 °FLight snow. Overcast.6 mph83%30.39 "Hg3 mi
2:00 AM29 °FSnow flurries. Overcast.3 mph84%30.41 "Hg6 mi
1:00 AM29 °FOvercast.2 mph86%30.44 "Hg6 mi
12:00 AM28 °FOvercast.1 mph91%30.46 "Hg5 mi
11:00 PM
Dec 28
27 °FOvercast.1 mph90%30.47 "Hg5 mi
10:00 PM27 °FOvercast.2 mph88%30.48 "Hg6 mi
9:00 PM27 °FOvercast.2 mph86%30.48 "Hg6 mi
8:00 PM27 °FOvercast.2 mph86%30.49 "Hg6 mi
7:00 PM26 °FOvercast.1 mph88%30.47 "Hg7 mi
6:00 PM27 °FOvercast.2 mph83%30.45 "Hg9 mi
5:00 PM26 °FPassing clouds.1 mph84%30.42 "Hg9 mi
4:00 PM28 °FOvercast.1 mph79%30.38 "Hg10 mi
3:00 PM28 °FOvercast.2 mph75%30.37 "Hg11 mi
2:00 PM29 °FOvercast.5 mph74%30.36 "Hg16 mi
1:00 PM28 °FPassing clouds.3 mph68%30.34 "Hg14 mi
12:00 PM27 °FSunny.5 mph68%30.32 "Hg11 mi
11:00 AM25 °FSunny.5 mph70%30.29 "Hg11 mi
10:00 AM23 °FSunny.3 mph72%30.25 "Hg15 mi
9:00 AM21 °FSunny.2 mph77%30.20 "Hg13 mi
8:00 AM21 °FClear.3 mph79%30.15 "Hg43 mi
7:00 AM22 °FClear.7 mph72%30.09 "HgN/A
Weather by CustomWeather, © 2014

See weather overviewHow to use our weather pages